Regional Weather Roundup
Issued by NWS

Home | Current Version | Previous Version | Text Only | Print | Product List | Glossary Off
Versions: 1 2 3 4 5 6 7 8 9 10 11 12 13 14 15 16 17 18 19 20 21 22 23 24 25 26 27 28 29 30 31 32 33 34 35 36 37 38 39 40 41 42 43 44 45 46 47 48 49 50

000
ASUS43 KIND 251500
RWRIN

WEATHER ROUNDUP FOR INDIANA
NATIONAL WEATHER SERVICE INDIANAPOLIS IN
1100 AM EDT THU MAY 25 2017

NOTE: "FAIR" INDICATES FEW OR NO CLOUDS BELOW 12,000 FEET WITH NO
SIGNIFICANT WEATHER AND/OR OBSTRUCTIONS TO VISIBILITY.

* - STATION DOES NOT REPORT WEATHER SUCH AS PRECIPITATION OR FOG.

+ - STATION NOT QUALITY CONTROLLED BY THE NATIONAL WEATHER SERVICE.
    USE DATA WITH CAUTION...ESPECIALLY DEWPOINT AND RELATIVE
    HUMIDITY OBSERVATIONS.

INZ001>003-010>013-019-020-251600-
NORTHWEST INDIANA

CITY           SKY/WX    TMP DP  RH WIND       PRES   REMARKS
GARY /AIRPORT/ CLOUDY    54  52  94 NW17G29   29.62R
MICHIGAN CITY+ CLOUDY    50  50 100 N8        29.60R
MONTICELLO +   CLOUDY    55  53  94 N15G23    29.56R FOG
RENSSELAER +   CLOUDY    55  54  94 NW16      29.59R FOG

$$

LMZ046-743>745-251600-
SOUTHERN LAKE MICHIGAN

STATION/POSITION TIME  TEMP    WIND        PRES    WAVE
                       AIR SEA DIR/SP/G            HT
                 (UTC) (F)     (DEG/KT/KT) (MB)    (FT)
BURNS HARBOR     1440   49     330/ 17/ 21 1002.7R
MICHIGAN CITY    1430   48     320/ 21/ 23   N/A
5NW MICH CITY    1450   48 52  330/ 16/ 21   N/A     5

$$

INZ004-005-014>016-021>024-251600-
NORTH CENTRAL INDIANA

CITY           SKY/WX    TMP DP  RH WIND       PRES   REMARKS
GOSHEN         CLOUDY    59  55  87 NW14      29.51S
PERU/GRISSOM   CLOUDY    59  59 100 NW13      29.51R
SOUTH BEND     CLOUDY    56  55  97 NW14      29.56R

$$

INZ006>009-017-018-025>027-251600-
NORTHEAST INDIANA

CITY           SKY/WX    TMP DP  RH WIND       PRES   REMARKS
ANGOLA *+      CLOUDY    61  50  67 N7        29.48S
FORT WAYNE     DRIZZLE   60  58  92 N13       29.48R
KENDALLVILLE + CLOUDY    60  58  94 N9        29.50R

$$

INZ028-029-035-036-043>045-051>053-251600-
WEST CENTRAL INDIANA

CITY           SKY/WX    TMP DP  RH WIND       PRES   REMARKS
CRAWFORDSVL +  CLOUDY    55  55 100 W20       29.57R
GREENCASTLE +  CLOUDY    55  54  94 NW8       29.58R
LAFAYETTE      CLOUDY    57  55  93 NW13G24   29.56R
TERRE HAUTE    CLOUDY    58  53  84 NW14G23   29.60R

$$

INZ030>032-037>040-046>048-054>057-064-065-251600-
CENTRAL INDIANA

CITY           SKY/WX    TMP DP  RH WIND       PRES   REMARKS
ANDERSON       LGT RAIN N/A N/A N/A N12       29.50R
COLUMBUS       LGT RAIN  55  54  94 NW14G21   29.52R FOG
INDIANAPOLIS   DRIZZLE   55  54  96 NW20      29.53R FOG
-EAGLE CREEK   LGT RAIN  56  54  93 NW16G24   29.53R FOG
KOKOMO +       CLOUDY    58  56  93 NW18      29.51R FOG
SHELBYVILLE    CLOUDY    59  55  87 NW15      29.49R

$$

INZ033-034-041-042-049-050-058-059-251600-
EAST CENTRAL INDIANA

CITY           SKY/WX    TMP DP  RH WIND       PRES   REMARKS
MUNCIE         LGT RAIN  63  59  87 N13       29.47R FOG
RICHMOND +     CLOUDY    61  55  82 NW6       29.45S

$$

INZ060-061-067>069-081>083-085>088-251600-
SOUTHWEST INDIANA

CITY           SKY/WX    TMP DP  RH WIND       PRES   REMARKS
EVANSVILLE     CLOUDY    62  54  74 W10       29.65R
HUNTINGBURG *+ CLOUDY    61  57  87 W17G24    29.61R

$$

INZ062-063-066-070>080-084-089>092-251600-
SOUTH CENTRAL AND SOUTHEAST INDIANA

CITY           SKY/WX    TMP DP  RH WIND       PRES   REMARKS
BLOOMINGTON    CLOUDY    57  53  86 W10       29.56R FOG
MADISON *+     CLOUDY    55  54  94 W12G22    29.52R

$$





USA.gov is the U.S. government's official web portal to all federal, state and local government web resources and services.